{"data":{"norad_id":53422,"intl_designator":"2022-097AL","name":"STARLINK-4546","alt_names":[],"object_type":"PAYLOAD","status":"ACTIVE","operator":null,"country":"US","launch_date":"2022-08-10","launch_site_code":"AFETR","launch_vehicle":null,"mission":null,"orbit_class":"UNKNOWN","rcs_meters":null,"size_class":null,"mass_kg":null,"dimensions":null,"purposes":["comms"],"wikipedia_slug":null,"has_3d_model":false,"image_url":null,"decayed_at":null,"tle_current":{"epoch":"2026-09-19T20:41:42.167040Z","epoch_age_seconds":130510,"freshness":"FRESH","line1":"1 53422U 22097AL  26262.86229360 -.00000017  00000+0  10623-4 0  9994","line2":"2 53422  53.1592 308.9681 0001125  88.3278 271.7854 15.34384198228140","mean_motion":15.34384198,"eccentricity":0.0001125,"inclination_deg":53.1592,"raan_deg":308.9681,"arg_perigee_deg":88.3278,"mean_anomaly_deg":271.7854,"bstar":1.0623e-5,"rev_number":22814,"period_min":93.848724581299,"perigee_km":461.98060767346,"apogee_km":463.51980729514,"semimajor_km":6840.8872074843,"source":"CELESTRAK","updated_at":"2026-09-20T09:00:40.230113Z"}}}